CAPE
0 0 0 0 0 0 0 56 269 339 292 65 92 119 79 86 63 81 44 17 26 11 0 0 0 0 0 0 0 0 2 1 14 8 17 4 19 23 50 54 50 47 43
0 0 0 0 0 0 0 0 171 104 132 32 47 58 72 91 86 67 47 27 37 41 2 0 0 0 0 0 0 0 3 3 5 4 14 8 7 21 33 59 61 62 45
0 0 0 0 0 0 0 1 118 98 133 168 31 41 48 76 62 51 34 40 22 8 21 0 2 0 0 0 0 0 0 0 7 7 9 2 6 3 10 60 68 75 57
0 0 0 0 0 0 0 1 4 100 168 196 180 25 36 24 3 21 23 27 20 38 42 23 8 1 2 0 0 0 0 0 0 11 6 2 0 3 0 9 30 41 74
0 0 0 0 0 0 0 0 3 5 313 601 121 104 31 33 24 29 47 58 53 29 31 33 38 5 14 30 14 0 0 0 0 0 0 4 1 0 0 0 0 3 15
0 0 0 0 0 0 0 0 0 4 56 114 259 121 63 41 40 38 43 49 64 12 28 45 9 18 33 21 4 7 0 0 0 0 0 0 0 0 0 0 0 0 0
0 0 0 0 0 0 0 0 0 2 11 67 163 211 95 53 54 35 31 53 37 33 6 32 12 42 29 36 5 5 16 13 2 0 0 0 0 0 0 0 0 0 0
0 0 0 0 0 0 0 0 0 5 4 33 73 69 78 79 78 66 31 2 33 37 10 32 43 46 40 24 27 12 18 18 0 0 0 1 4 7 9 5 5 0 0
0 0 0 0 0 0 0 0 0 4 4 9 20 52 75 93 74 77 44 31 17 42 54 71 61 58 54 27 14 26 17 23 23 22 20 0 0 5 9 8 10 8 1
0 0 0 0 0 0 0 0 0 1 5 4 22 44 49 66 36 51 42 32 20 27 45 48 65 56 58 41 12 13 22 10 11 1 1 18 9 2 4 6 11 12 11
0 2 0 0 0 0 0 0 0 0 3 5 7 33 75 79 103 109 49 58 52 53 54 47 56 49 53 67 76 35 9 27 19 45 21 6 1 14 9 4 1 4 5
0 0 0 0 0 0 0 0 0 0 4 4 5 8 15 23 43 32 101 71 50 46 49 34 49 23 23 46 35 20 13 32 21 6 12 22 14 11 17 12 0 0 1
0 0 0 0 0 0 0 0 0 0 2 2 3 10 9 9 8 29 71 67 51 33 30 21 12 55 27 11 33 29 17 10 11 3 15 9 6 18 15 15 7 4 6
0 0 0 0 0 0 0 0 1 0 3 0 0 3 6 9 26 43 57 56 40 35 21 32 29 27 9 11 33 36 28 14 6 6 35 6 9 16 14 8 10 10 0
0 0 0 0 0 0 0 0 0 3 2 5 4 6 8 7 11 43 5 0 0 1 0 1 6 12 6 10 42 12 22 9 13 1 15 1 8 11 2 4 1 0 2
0 0 0 0 0 0 0 0 0 0 9 12 10 11 5 26 8 2 4 4 7 1 0 0 0 0 0 0 4 10 15 10 20 0 8 13 10 0 11 4 4 4 0
0 0 0 0 0 0 0 0 0 0 0 9 4 5 7 0 0 2 11 9 4 24 5 0 0 0 2 0 3 8 1 10 1 7 11 18 0 0 2 1 3 0 1
0 0 0 0 0 0 0 0 0 0 0 0 5 4 10 1 2 7 0 8 2 14 5 3 0 0 0 0 0 5 8 20 6 14 3 6 12 1 0 0 0 0 0
0 0 0 0 0 0 0 0 0 0 0 0 0 0 0 1 0 6 7 4 0 0 0 0 0 3 2 3 3 8 11 10 12 1 1 7 3 1 0 6 2 0 0
0 0 0 0 0 0 0 0 0 0 0 0 0 0 0 0 0 0 0 4 1 6 0 0 0 1 7 5 8 10 12 16 6 2 0 0 0 0 0 0 0 0 3
0 0 0 0 0 0 0 0 0 0 0 0 0 0 0 0 0 0 0 0 0 0 0 0 2 14 11 11 7 7 8 1 1 4 0 0 0 0 0 0 0 1 7
0 0 0 0 0 0 0 0 0 0 0 0 0 0 0 0 0 0 0 0 0 0 0 0 0 2 8 1 0 0 6 0 3 11 6 5 0 0 0 4 7 7 0
0 0 0 0 0 0 0 0 0 0 0 0 0 0 0 0 0 0 0 0 0 0 0 0 0 2 0 0 1 0 1 3 0 2 1 8 8 9 0 0 0 1 1
0 0 0 0 0 0 0 0 0 0 0 0 0 0 0 0 0 0 0 0 0 0 0 0 2 0 0 0 0 0 3 0 0 0 0 0 0 0 0 4 4 0 1
0 0 0 0 0 0 0 0 0 0 0 0 0 0 0 0 0 0 0 0 0 0 0 0 0 0 0 0 0 0 0 0 0 0 0 0 0 0 0 0 2 3 1
0 0 0 0 0 0 0 0 0 0 0 0 0 0 0 0 0 0 0 0 0 0 0 0 0 0 0 0 0 0 0 0 5 0 0 0 0 0 0 0 0 0 0
CIN
0 0 0 0 0 0 0 -62 -34 -25 -23 -103 -98 -85 -124 -123 -14 -6 -16 -10 -3 -3 0 0 0 0 0 0 0 0 0 0 -5 -11 -10 0 -15 -8 -1 -1 -2 0 -6
0 0 0 0 0 0 0 0 -46 -65 -50 -57 -18 -58 -58 -69 -16 -14 -3 -1 -3 -1 -4 0 0 0 0 0 0 0 -10 -11 -4 0 -29 -4 -22 -22 -14 -1 0 0 0
0 0 0 0 0 0 0 0 -27 -39 -36 -41 -21 -17 -19 -16 -11 -2 -3 -1 -1 -9 -3 -1 -2 0 0 0 0 0 0 0 -5 -4 -9 0 -1 -18 -14 -2 -1 -1 -2
0 0 0 0 0 0 0 0 0 -16 -13 -20 -25 -19 -13 -9 -4 -30 -25 -1 -6 -1 0 -1 -7 -5 -8 0 0 0 0 0 0 -6 0 -1 0 -1 -1 -13 -17 0 0
0 0 0 0 0 0 0 0 0 0 0 0 -16 -41 -28 -12 -17 -36 -8 -1 0 -1 -1 -2 0 -7 -6 -2 -4 0 0 0 0 0 -1 0 -1 0 0 0 0 -21 -13
0 0 0 0 0 0 0 0 0 0 -15 -8 0 -10 -15 -26 -9 -9 -11 -9 -1 -15 -3 -4 -1 -6 0 -2 -5 -8 0 0 0 0 0 0 0 0 0 0 0 0 0
0 0 0 0 0 0 0 0 0 0 0 -15 -1 0 -6 -25 -17 -30 -24 -9 -7 -2 -1 -2 -3 0 -1 -17 -4 -17 -16 -10 -1 0 0 0 0 0 0 0 0 0 0
0 0 0 0 0 0 0 0 0 0 0 -1 -4 0 0 -14 -9 -8 -9 -2 -14 -14 -9 -7 -2 -1 0 -8 0 -3 0 -7 0 0 0 -1 -1 0 0 0 0 0 0
0 0 0 0 0 0 0 0 0 0 0 0 0 0 0 0 -12 -12 -10 -13 -19 -11 -8 -7 -6 -6 -3 -1 -13 -4 -4 -1 0 -10 -7 0 0 0 0 0 0 0 0
0 0 0 0 0 0 0 0 0 0 0 -1 -6 -3 0 0 -8 -9 -11 -13 -9 -14 -11 -9 -10 -8 -5 -7 -9 -4 -1 -1 -2 -4 0 -4 -7 -1 -1 0 0 0 0
0 -1 0 0 0 0 0 0 0 0 0 0 -4 -20 -3 0 0 0 -3 -4 -3 -6 -3 -3 -4 -3 -1 0 0 -1 -3 -12 0 0 -4 -10 -11 -13 -6 -14 -1 0 0
0 0 0 0 0 0 0 0 0 0 0 0 0 -2 -23 -11 0 0 0 -5 -12 -7 -14 -4 0 -5 0 0 0 0 -1 -2 0 -4 -4 -2 -10 0 -17 -9 -3 0 0
0 0 0 0 0 0 0 0 0 0 0 0 0 0 0 -1 0 -1 0 -1 -12 -15 -31 -6 -2 0 0 0 0 -7 -13 -21 -16 0 0 -4 -5 -1 -18 -3 -3 -14 0
0 0 0 0 0 0 0 0 0 0 0 0 0 0 0 0 -5 -1 0 0 -15 -21 -14 0 -1 -1 -2 -2 0 0 -2 -2 -4 -1 -8 -10 0 0 0 -1 0 0 0
0 0 0 0 0 0 0 0 0 0 0 0 0 0 -1 0 0 -3 -10 0 0 0 0 -2 -3 -4 0 0 0 0 -2 -2 -8 0 0 -10 -2 0 0 -1 0 0 0
0 0 0 0 0 0 0 0 0 0 0 0 0 0 0 0 -2 -1 0 0 -7 -2 0 0 0 0 0 -2 -4 -3 0 0 0 0 -6 -12 0 0 0 -1 0 -2 0
0 0 0 0 0 0 0 0 0 0 -1 0 -2 -4 -3 -1 -1 -4 -1 -1 -4 -2 -2 0 0 0 0 0 -1 -1 0 0 -1 -5 -5 -4 -2 0 0 0 0 0 -4
0 0 0 0 0 0 0 0 0 0 0 0 -2 -2 -1 0 -1 -2 0 -1 0 0 0 0 -1 0 0 0 0 0 0 0 -1 0 -3 0 0 -1 0 -2 0 0 0
0 0 0 0 0 0 0 0 0 0 0 0 0 0 0 -2 0 0 0 0 0 0 0 0 0 -6 0 0 0 -2 0 0 0 -2 -2 -2 -2 0 0 0 0 0 0
0 0 0 0 0 0 0 0 0 0 0 0 0 0 0 0 0 0 0 -1 -1 0 0 0 0 -1 0 -4 -2 0 0 0 0 -2 0 0 0 0 0 0 0 0 0
0 0 0 0 0 0 0 0 0 0 0 0 0 0 0 0 0 0 0 0 0 0 0 0 0 0 -1 -2 0 0 0 -1 -1 0 0 0 0 0 0 0 0 0 0
0 0 0 0 0 0 0 0 0 0 0 0 0 0 0 0 0 0 0 0 0 0 0 0 0 -1 -1 -1 0 0 0 0 -1 0 -1 0 0 0 0 0 0 0 0
0 0 0 0 0 0 0 0 0 0 0 0 0 0 0 0 0 0 0 0 0 0 0 0 0 -2 -1 0 0 0 0 0 0 0 0 0 0 0 0 0 0 0 0
0 0 0 0 0 0 0 0 0 0 0 0 0 0 0 0 0 0 0 0 0 0 0 -1 -1 0 0 0 0 0 0 0 0 0 0 0 0 0 0 -4 -5 -1 -2
0 0 0 0 0 0 0 0 0 0 0 0 0 0 0 0 0 0 0 0 0 0 0 0 0 0 0 0 0 0 0 0 0 0 0 0 0 0 0 0 0 0 0
0 0 0 0 0 0 0 0 0 0 0 0 0 0 0 0 0 0 0 0 0 0 0 0 0 0 0 0 0 0 0 0 -1 0 0 0 0 0 0 0 0 0 0
Wind_Speed
nan nan nan nan nan nan nan nan 45 42 46 nan nan 45 nan nan nan nan nan nan nan nan nan nan nan nan nan nan nan nan nan nan nan nan nan nan nan nan nan nan nan nan nan
nan nan nan nan nan nan nan nan 46 46 46 nan nan nan nan nan nan nan nan nan nan nan nan nan nan nan nan nan nan nan nan nan nan nan nan nan nan nan nan nan nan nan nan
nan nan nan nan nan nan nan nan 49 nan 48 43 nan nan nan nan nan nan nan nan nan nan nan nan nan nan nan nan nan nan nan nan nan nan nan nan nan nan nan nan nan nan nan
nan nan nan nan nan nan nan nan nan 51 50 46 48 nan nan nan nan nan nan nan nan nan nan nan nan nan nan nan nan nan nan nan nan nan nan nan nan nan nan nan nan nan nan
nan nan nan nan nan nan nan nan nan nan 54 49 47 45 nan nan nan nan nan nan nan nan nan nan nan nan nan nan nan nan nan nan nan nan nan nan nan nan nan nan nan nan nan
nan nan nan nan nan nan nan nan nan nan nan 55 52 46 nan nan nan nan nan nan nan nan nan nan nan nan nan nan nan nan nan nan nan nan nan nan nan nan nan nan nan nan nan
nan nan nan nan nan nan nan nan nan nan nan nan 53 51 nan nan nan nan nan nan nan nan nan nan nan nan nan nan nan nan nan nan nan nan nan nan nan nan nan nan nan nan nan
nan nan nan nan nan nan nan nan nan nan nan nan nan nan nan nan nan nan nan nan nan nan nan nan nan nan nan nan nan nan nan nan nan nan nan nan nan nan nan nan nan nan nan
nan nan nan nan nan nan nan nan nan nan nan nan nan nan nan nan nan nan nan nan nan nan nan nan nan nan nan nan nan nan nan nan nan nan nan nan nan nan nan nan nan nan nan
nan nan nan nan nan nan nan nan nan nan nan nan nan nan nan nan nan nan nan nan nan nan nan nan nan nan nan nan nan nan nan nan nan nan nan nan nan nan nan nan nan nan nan
nan nan nan nan nan nan nan nan nan nan nan nan nan nan nan nan 58 56 nan nan nan nan nan nan nan nan nan nan nan nan nan nan nan nan nan nan nan nan nan nan nan nan nan
nan nan nan nan nan nan nan nan nan nan nan nan nan nan nan nan nan nan 56 nan nan nan nan nan nan nan nan nan nan nan nan nan nan nan nan nan nan nan nan nan nan nan nan
nan nan nan nan nan nan nan nan nan nan nan nan nan nan nan nan nan nan nan nan nan nan nan nan nan nan nan nan nan nan nan nan nan nan nan nan nan nan nan nan nan nan nan
nan nan nan nan nan nan nan nan nan nan nan nan nan nan nan nan nan nan nan nan nan nan nan nan nan nan nan nan nan nan nan nan nan nan nan nan nan nan nan nan nan nan nan
nan nan nan nan nan nan nan nan nan nan nan nan nan nan nan nan nan nan nan nan nan nan nan nan nan nan nan nan nan nan nan nan nan nan nan nan nan nan nan nan nan nan nan
nan nan nan nan nan nan nan nan nan nan nan nan nan nan nan nan nan nan nan nan nan nan nan nan nan nan nan nan nan nan nan nan nan nan nan nan nan nan nan nan nan nan nan
nan nan nan nan nan nan nan nan nan nan nan nan nan nan nan nan nan nan nan nan nan nan nan nan nan nan nan nan nan nan nan nan nan nan nan nan nan nan nan nan nan nan nan
nan nan nan nan nan nan nan nan nan nan nan nan nan nan nan nan nan nan nan nan nan nan nan nan nan nan nan nan nan nan nan nan nan nan nan nan nan nan nan nan nan nan nan
nan nan nan nan nan nan nan nan nan nan nan nan nan nan nan nan nan nan nan nan nan nan nan nan nan nan nan nan nan nan nan nan nan nan nan nan nan nan nan nan nan nan nan
nan nan nan nan nan nan nan nan nan nan nan nan nan nan nan nan nan nan nan nan nan nan nan nan nan nan nan nan nan nan nan nan nan nan nan nan nan nan nan nan nan nan nan
nan nan nan nan nan nan nan nan nan nan nan nan nan nan nan nan nan nan nan nan nan nan nan nan nan nan nan nan nan nan nan nan nan nan nan nan nan nan nan nan nan nan nan
nan nan nan nan nan nan nan nan nan nan nan nan nan nan nan nan nan nan nan nan nan nan nan nan nan nan nan nan nan nan nan nan nan nan nan nan nan nan nan nan nan nan nan
nan nan nan nan nan nan nan nan nan nan nan nan nan nan nan nan nan nan nan nan nan nan nan nan nan nan nan nan nan nan nan nan nan nan nan nan nan nan nan nan nan nan nan
nan nan nan nan nan nan nan nan nan nan nan nan nan nan nan nan nan nan nan nan nan nan nan nan nan nan nan nan nan nan nan nan nan nan nan nan nan nan nan nan nan nan nan
nan nan nan nan nan nan nan nan nan nan nan nan nan nan nan nan nan nan nan nan nan nan nan nan nan nan nan nan nan nan nan nan nan nan nan nan nan nan nan nan nan nan nan
nan nan nan nan nan nan nan nan nan nan nan nan nan nan nan nan nan nan nan nan nan nan nan nan nan nan nan nan nan nan nan nan nan nan nan nan nan nan nan nan nan nan nan
Wind_Direction
nan nan nan nan nan nan nan nan 238 239 240 nan nan 238 nan nan nan nan nan nan nan nan nan nan nan nan nan nan nan nan nan nan nan nan nan nan nan nan nan nan nan nan nan
nan nan nan nan nan nan nan nan 237 240 238 nan nan nan nan nan nan nan nan nan nan nan nan nan nan nan nan nan nan nan nan nan nan nan nan nan nan nan nan nan nan nan nan
nan nan nan nan nan nan nan nan 232 nan 237 237 nan nan nan nan nan nan nan nan nan nan nan nan nan nan nan nan nan nan nan nan nan nan nan nan nan nan nan nan nan nan nan
nan nan nan nan nan nan nan nan nan 229 236 237 238 nan nan nan nan nan nan nan nan nan nan nan nan nan nan nan nan nan nan nan nan nan nan nan nan nan nan nan nan nan nan
nan nan nan nan nan nan nan nan nan nan 232 235 237 239 nan nan nan nan nan nan nan nan nan nan nan nan nan nan nan nan nan nan nan nan nan nan nan nan nan nan nan nan nan
nan nan nan nan nan nan nan nan nan nan nan 235 236 236 nan nan nan nan nan nan nan nan nan nan nan nan nan nan nan nan nan nan nan nan nan nan nan nan nan nan nan nan nan
nan nan nan nan nan nan nan nan nan nan nan nan 237 236 nan nan nan nan nan nan nan nan nan nan nan nan nan nan nan nan nan nan nan nan nan nan nan nan nan nan nan nan nan
nan nan nan nan nan nan nan nan nan nan nan nan nan nan nan nan nan nan nan nan nan nan nan nan nan nan nan nan nan nan nan nan nan nan nan nan nan nan nan nan nan nan nan
nan nan nan nan nan nan nan nan nan nan nan nan nan nan nan nan nan nan nan nan nan nan nan nan nan nan nan nan nan nan nan nan nan nan nan nan nan nan nan nan nan nan nan
nan nan nan nan nan nan nan nan nan nan nan nan nan nan nan nan nan nan nan nan nan nan nan nan nan nan nan nan nan nan nan nan nan nan nan nan nan nan nan nan nan nan nan
nan nan nan nan nan nan nan nan nan nan nan nan nan nan nan nan 238 239 nan nan nan nan nan nan nan nan nan nan nan nan nan nan nan nan nan nan nan nan nan nan nan nan nan
nan nan nan nan nan nan nan nan nan nan nan nan nan nan nan nan nan nan 239 nan nan nan nan nan nan nan nan nan nan nan nan nan nan nan nan nan nan nan nan nan nan nan nan
nan nan nan nan nan nan nan nan nan nan nan nan nan nan nan nan nan nan nan nan nan nan nan nan nan nan nan nan nan nan nan nan nan nan nan nan nan nan nan nan nan nan nan
nan nan nan nan nan nan nan nan nan nan nan nan nan nan nan nan nan nan nan nan nan nan nan nan nan nan nan nan nan nan nan nan nan nan nan nan nan nan nan nan nan nan nan
nan nan nan nan nan nan nan nan nan nan nan nan nan nan nan nan nan nan nan nan nan nan nan nan nan nan nan nan nan nan nan nan nan nan nan nan nan nan nan nan nan nan nan
nan nan nan nan nan nan nan nan nan nan nan nan nan nan nan nan nan nan nan nan nan nan nan nan nan nan nan nan nan nan nan nan nan nan nan nan nan nan nan nan nan nan nan
nan nan nan nan nan nan nan nan nan nan nan nan nan nan nan nan nan nan nan nan nan nan nan nan nan nan nan nan nan nan nan nan nan nan nan nan nan nan nan nan nan nan nan
nan nan nan nan nan nan nan nan nan nan nan nan nan nan nan nan nan nan nan nan nan nan nan nan nan nan nan nan nan nan nan nan nan nan nan nan nan nan nan nan nan nan nan
nan nan nan nan nan nan nan nan nan nan nan nan nan nan nan nan nan nan nan nan nan nan nan nan nan nan nan nan nan nan nan nan nan nan nan nan nan nan nan nan nan nan nan
nan nan nan nan nan nan nan nan nan nan nan nan nan nan nan nan nan nan nan nan nan nan nan nan nan nan nan nan nan nan nan nan nan nan nan nan nan nan nan nan nan nan nan
nan nan nan nan nan nan nan nan nan nan nan nan nan nan nan nan nan nan nan nan nan nan nan nan nan nan nan nan nan nan nan nan nan nan nan nan nan nan nan nan nan nan nan
nan nan nan nan nan nan nan nan nan nan nan nan nan nan nan nan nan nan nan nan nan nan nan nan nan nan nan nan nan nan nan nan nan nan nan nan nan nan nan nan nan nan nan
nan nan nan nan nan nan nan nan nan nan nan nan nan nan nan nan nan nan nan nan nan nan nan nan nan nan nan nan nan nan nan nan nan nan nan nan nan nan nan nan nan nan nan
nan nan nan nan nan nan nan nan nan nan nan nan nan nan nan nan nan nan nan nan nan nan nan nan nan nan nan nan nan nan nan nan nan nan nan nan nan nan nan nan nan nan nan
nan nan nan nan nan nan nan nan nan nan nan nan nan nan nan nan nan nan nan nan nan nan nan nan nan nan nan nan nan nan nan nan nan nan nan nan nan nan nan nan nan nan nan
nan nan nan nan nan nan nan nan nan nan nan nan nan nan nan nan nan nan nan nan nan nan nan nan nan nan nan nan nan nan nan nan nan nan nan nan nan nan nan nan nan nan nan